Location: C.E.K. Mees Observatory
(42.7003°N, 77.4088°W)
Time: 04:21:39
(UTC-04:00)

ISS - Pass Details

Date: 08 October 2017
Orbit: 401 x 408 km, 51.6° (Epoch: 22 October)

Event Time Altitude Azimuth Distance (km) Brightness Sun altitude
Rises 21:26:00 0° 303° (WNW) 2,328 1.1 -31.1°
Reaches altitude 10° 21:28:06 10° 304° (NW) 1,467 -0.2 -31.4°
Enters shadow 21:28:11 11° 304° (NW) 1,431 -0.2 -31.5°
